User: anonymous   Login
Location: Newark
(35.6799°N, 139.7636°E)
Time: 23:17:54
(UTC+00:00)
Language:

Tiros 1 - Orbit

View from above orbital plane
View from above orbital plane
View from above satellite
View from above satellite

Ground track
Ground track

The orbit data is extracted from the following two-line orbital elements,

1    29U 60002B   19342.80686492 -.00000131  00000-0  11563-4 0  9997
2    29  48.3785 133.0392 0023826 133.3922 226.8978 14.74332097190386
Epoch (UTC): 08 December 2019 19:21:53
Eccentricity: 0.0023826
inclination: 48.3785°
perigee height: 630 km
apogee height: 664 km
right ascension of ascending node: 133.0392°
argument of perigee: 133.3922°
revolutions per day: 14.74332097
mean anomaly at epoch: 226.8978°
orbit number at epoch: 19038

The dashed part of the orbit path shows where the satellite is in the earth's shadow,  

DLR